CEB814 WSSS-RPLL

Flight info

Callsign CEB814
Flight time 2h 46m
Altitude 35000
Route TOMAN5B TOMAN L625 LUSMO N884 LUBAN LUBAN3R
Aircraft A320/M-SDE3FGHIRWY/LB1

Departure

Time 2026-05-04 11:05
Airport Singapore Changi Airport (WSSS)

Arrival

Time 2026-05-04 13:52
Airport Ninoy Aquino International Airport (RPLL)
Time Latitude Longitude Altitude Speed Heading
2026-05-04 10:25 1.36125 103.99255 24 ft 0 kts 293°
2026-05-04 10:54 1.36120 103.99268 27 ft 2 kts 293°
2026-05-04 10:54 1.36113 103.99283 26 ft 2 kts 293°
2026-05-04 10:56 1.36053 103.99339 28 ft 0 kts 24°
2026-05-04 10:58 1.36054 103.99340 28 ft 1 kts 24°
2026-05-04 10:58 1.36068 103.99346 29 ft 4 kts 24°
2026-05-04 10:58 1.36097 103.99359 28 ft 4 kts 26°
2026-05-04 10:59 1.36120 103.99382 30 ft 4 kts
2026-05-04 10:59 1.36163 103.99388 30 ft 8 kts 16°
2026-05-04 10:59 1.36222 103.99412 30 ft 11 kts 28°
2026-05-04 10:59 1.36293 103.99459 30 ft 14 kts 49°
2026-05-04 11:00 1.36345 103.99538 30 ft 10 kts 89°
2026-05-04 11:01 1.35371 103.99542 26 ft 117 kts 202°
2026-05-04 11:02 1.34455 103.99167 26 ft 165 kts 202°
2026-05-04 11:02 1.33333 103.98669 394 ft 176 kts 204°
2026-05-04 11:05 1.15585 104.02886 7108 ft 281 kts 92°
2026-05-04 11:06 1.15708 104.04847 7734 ft 286 kts 82°
2026-05-04 11:06 1.15946 104.06834 7957 ft 288 kts 82°
2026-05-04 11:06 1.16175 104.08824 8542 ft 290 kts 83°
2026-05-04 11:06 1.16403 104.10835 8887 ft 291 kts 83°
2026-05-04 11:08 1.20330 104.25536 11133 ft 354 kts 73°
2026-05-04 11:10 1.25430 104.42527 14873 ft 375 kts 73°
2026-05-04 11:12 1.30804 104.60371 18244 ft 387 kts 74°
2026-05-04 11:12 1.31581 104.62958 18642 ft 389 kts 73°
2026-05-04 11:12 1.32361 104.65558 19031 ft 391 kts 73°
2026-05-04 11:12 1.33142 104.68165 19409 ft 393 kts 75°
2026-05-04 11:13 1.33671 104.70852 19767 ft 395 kts 85°
2026-05-04 11:13 1.33775 104.73596 20120 ft 397 kts 89°
2026-05-04 11:13 1.33836 104.76368 20480 ft 400 kts 89°
2026-05-04 11:13 1.34010 104.79148 20831 ft 402 kts 80°
2026-05-04 11:14 1.34857 104.81806 21164 ft 405 kts 67°
2026-05-04 11:14 1.36003 104.84388 21520 ft 407 kts 66°
2026-05-04 11:14 1.37118 104.86988 21875 ft 409 kts 68°
2026-05-04 11:16 1.45532 105.05421 24057 ft 424 kts 66°
2026-05-04 11:16 1.46752 105.08143 24332 ft 425 kts 66°
2026-05-04 11:16 1.47945 105.10816 24607 ft 427 kts 66°
2026-05-04 11:17 1.49161 105.13535 24863 ft 429 kts 66°
2026-05-04 11:17 1.50386 105.16263 25117 ft 431 kts 66°
2026-05-04 11:19 1.59106 105.35640 26851 ft 443 kts 66°
2026-05-04 11:19 1.60373 105.38456 27086 ft 445 kts 66°
2026-05-04 11:19 1.61663 105.41321 27323 ft 447 kts 66°
2026-05-04 11:19 1.62919 105.44114 27556 ft 448 kts 66°
2026-05-04 11:20 1.64203 105.46964 27786 ft 450 kts 66°
2026-05-04 11:20 1.65504 105.49853 28015 ft 452 kts 66°
2026-05-04 11:20 1.66782 105.52688 28230 ft 454 kts 66°
2026-05-04 11:20 1.68101 105.55610 28441 ft 456 kts 66°
2026-05-04 11:22 1.77313 105.76069 29844 ft 467 kts 66°
2026-05-04 11:22 1.78650 105.79037 30007 ft 469 kts 66°
2026-05-04 11:23 1.79985 105.82006 30179 ft 470 kts 66°
2026-05-04 11:23 1.81328 105.84989 30387 ft 470 kts 66°
2026-05-04 11:24 1.89350 106.02716 31910 ft 465 kts 62°
2026-05-04 11:25 1.91118 106.05420 32158 ft 465 kts 52°
2026-05-04 11:25 1.93348 106.07764 32411 ft 466 kts 41°
2026-05-04 11:25 1.95966 106.09656 32667 ft 466 kts 31°
2026-05-04 11:26 2.01731 106.12652 33130 ft 466 kts 28°
2026-05-04 11:27 2.21767 106.23033 34771 ft 461 kts 28°
2026-05-04 11:28 2.27446 106.25973 34883 ft 458 kts 28°
2026-05-04 11:28 2.33103 106.28900 34871 ft 457 kts 28°
2026-05-04 11:29 2.38745 106.31824 34876 ft 457 kts 28°
2026-05-04 11:29 2.44388 106.34745 34868 ft 457 kts 28°
2026-05-04 11:33 2.91101 106.58926 34885 ft 458 kts 28°
2026-05-04 11:33 3.02410 106.64787 34881 ft 458 kts 28°
2026-05-04 11:34 3.13733 106.70650 34884 ft 458 kts 28°
2026-05-04 11:34 3.25076 106.76505 34871 ft 458 kts 28°
2026-05-04 11:35 3.36380 106.82378 34873 ft 458 kts 28°
2026-05-04 11:35 3.47696 106.88232 34875 ft 458 kts 28°
2026-05-04 11:36 3.58215 106.95181 34866 ft 454 kts 51°
2026-05-04 11:36 3.66140 107.05038 34854 ft 455 kts 52°
2026-05-04 11:37 3.74105 107.14889 34873 ft 456 kts 52°
2026-05-04 11:37 3.82050 107.24781 34881 ft 456 kts 52°
2026-05-04 11:38 3.90034 107.34678 34887 ft 456 kts 52°
2026-05-04 11:38 3.97998 107.44569 34888 ft 456 kts 52°
2026-05-04 11:39 4.05962 107.54462 34890 ft 456 kts 52°
2026-05-04 11:41 4.33839 107.89134 34891 ft 457 kts 52°
2026-05-04 11:41 4.41803 107.99045 34890 ft 457 kts 52°
2026-05-04 11:42 4.49753 108.08957 34892 ft 456 kts 52°
2026-05-04 11:42 4.57702 108.18865 34887 ft 456 kts 52°
2026-05-04 11:43 4.65654 108.28758 34886 ft 456 kts 52°
2026-05-04 11:43 4.72312 108.37062 34884 ft 456 kts 52°
2026-05-04 11:44 4.80285 108.46936 34883 ft 456 kts 52°
2026-05-04 11:44 4.88291 108.56800 34881 ft 456 kts 52°
2026-05-04 11:45 4.96272 108.66663 34884 ft 455 kts 52°
2026-05-04 11:45 5.04250 108.76521 34885 ft 455 kts 52°
2026-05-04 11:46 5.12232 108.86397 34885 ft 455 kts 52°
2026-05-04 11:46 5.20206 108.96247 34885 ft 455 kts 52°
2026-05-04 11:47 5.28171 109.06097 34886 ft 455 kts 52°
2026-05-04 11:47 5.36131 109.15947 34883 ft 454 kts 52°
2026-05-04 11:48 5.44076 109.25805 34886 ft 454 kts 52°
2026-05-04 11:48 5.52034 109.35678 34886 ft 454 kts 52°
2026-05-04 11:49 5.59985 109.45520 34883 ft 454 kts 52°
2026-05-04 11:49 5.67934 109.55381 34883 ft 454 kts 52°
2026-05-04 11:50 5.75886 109.65258 34887 ft 454 kts 52°
2026-05-04 11:50 5.83833 109.75109 34884 ft 454 kts 52°
2026-05-04 11:51 5.91752 109.84980 34887 ft 454 kts 52°
2026-05-04 11:51 5.99696 109.94846 34886 ft 454 kts 52°
2026-05-04 11:52 6.07629 110.04698 34871 ft 454 kts 52°
2026-05-04 11:52 6.15546 110.14560 34880 ft 453 kts 52°
2026-05-04 11:53 6.23476 110.24434 34891 ft 453 kts 52°
2026-05-04 11:53 6.31384 110.34293 34888 ft 453 kts 52°
2026-05-04 11:55 6.62993 110.73687 34874 ft 452 kts 52°
2026-05-04 11:56 6.70872 110.83560 34877 ft 452 kts 52°
2026-05-04 11:56 6.78756 110.93396 34888 ft 452 kts 52°
2026-05-04 11:57 6.86630 111.03230 34874 ft 451 kts 52°
2026-05-04 11:57 6.94485 111.13064 34889 ft 451 kts 52°
2026-05-04 11:58 7.02332 111.22920 34888 ft 450 kts 52°
2026-05-04 11:58 7.10186 111.32742 34880 ft 450 kts 52°
2026-05-04 11:59 7.18032 111.42572 34888 ft 450 kts 52°
2026-05-04 11:59 7.25888 111.52420 34885 ft 450 kts 52°
2026-05-04 12:00 7.33698 111.62277 34885 ft 450 kts 53°
2026-05-04 12:00 7.41491 111.72132 34883 ft 450 kts 53°
2026-05-04 12:01 7.49277 111.81994 34877 ft 450 kts 53°
2026-05-04 12:02 7.63752 112.00356 34883 ft 450 kts 53°
2026-05-04 12:03 7.67651 112.05297 34888 ft 450 kts 53°
2026-05-04 12:03 7.71546 112.10240 34889 ft 450 kts 53°
2026-05-04 12:04 7.75462 112.15218 34887 ft 450 kts 53°
2026-05-04 12:04 7.79341 112.20130 34892 ft 450 kts 53°
2026-05-04 12:05 7.83236 112.25069 34891 ft 450 kts 52°
2026-05-04 12:05 7.87147 112.30049 34891 ft 450 kts 53°
2026-05-04 12:06 7.91035 112.34999 34887 ft 450 kts 52°
2026-05-04 12:06 7.94911 112.39916 34895 ft 450 kts 52°
2026-05-04 12:07 7.98805 112.44860 34891 ft 450 kts 52°
2026-05-04 12:07 8.02694 112.49811 34896 ft 450 kts 53°
2026-05-04 12:08 8.06610 112.54797 34895 ft 451 kts 52°
2026-05-04 12:08 8.10505 112.59748 34895 ft 451 kts 52°
2026-05-04 12:09 8.14380 112.64677 34893 ft 451 kts 53°
2026-05-04 12:09 8.18296 112.69670 34901 ft 451 kts 52°
2026-05-04 12:10 8.22185 112.74632 34895 ft 451 kts 53°
2026-05-04 12:10 8.26078 112.79596 34895 ft 451 kts 52°
2026-05-04 12:11 8.29979 112.84568 34896 ft 451 kts 53°
2026-05-04 12:11 8.33871 112.89536 34906 ft 451 kts 53°
2026-05-04 12:12 8.37767 112.94500 34908 ft 451 kts 53°
2026-05-04 12:12 8.41665 112.99474 34906 ft 451 kts 52°
2026-05-04 12:14 8.57218 113.19350 34909 ft 450 kts 52°
2026-05-04 12:15 8.61097 113.24309 34913 ft 450 kts 52°
2026-05-04 12:15 8.64982 113.29275 34908 ft 450 kts 52°
2026-05-04 12:16 8.68860 113.34246 34910 ft 450 kts 52°
2026-05-04 12:16 8.72737 113.39207 34913 ft 450 kts 52°
2026-05-04 12:17 8.76616 113.44172 34907 ft 450 kts 52°
2026-05-04 12:17 8.80495 113.49143 34905 ft 450 kts 52°
2026-05-04 12:18 8.84382 113.54115 34905 ft 451 kts 52°
2026-05-04 12:18 8.88269 113.59097 34904 ft 451 kts 52°
2026-05-04 12:19 8.92142 113.64082 34902 ft 451 kts 52°
2026-05-04 12:19 8.96015 113.69063 34906 ft 451 kts 52°
2026-05-04 12:20 8.99239 113.73195 34904 ft 451 kts 52°
2026-05-04 12:20 9.03132 113.78180 34903 ft 451 kts 52°
2026-05-04 12:21 9.07008 113.83168 34895 ft 451 kts 52°
2026-05-04 12:21 9.10889 113.88151 34914 ft 451 kts 52°
2026-05-04 12:22 9.14771 113.93126 34915 ft 450 kts 52°
2026-05-04 12:22 9.18644 113.98119 34916 ft 450 kts 52°
2026-05-04 12:23 9.22507 114.03104 34919 ft 450 kts 52°
2026-05-04 12:23 9.26376 114.08084 34908 ft 450 kts 52°
2026-05-04 12:24 9.30252 114.13074 34909 ft 450 kts 52°
2026-05-04 12:24 9.34126 114.18058 34906 ft 451 kts 52°
2026-05-04 12:25 9.38002 114.23045 34904 ft 451 kts 52°
2026-05-04 12:25 9.41874 114.28041 34905 ft 451 kts 52°
2026-05-04 12:26 9.45757 114.33046 34907 ft 451 kts 52°
2026-05-04 12:26 9.49628 114.38048 34905 ft 451 kts 52°
2026-05-04 12:27 9.53500 114.43050 34908 ft 451 kts 52°
2026-05-04 12:27 9.57400 114.48087 34905 ft 452 kts 52°
2026-05-04 12:28 9.61262 114.53065 34903 ft 452 kts 52°
2026-05-04 12:28 9.65145 114.58074 34904 ft 452 kts 52°
2026-05-04 12:29 9.69052 114.63124 34906 ft 452 kts 52°
2026-05-04 12:29 9.72931 114.68145 34904 ft 453 kts 52°
2026-05-04 12:30 9.76787 114.73144 34904 ft 452 kts 52°
2026-05-04 12:30 9.80689 114.78199 34904 ft 452 kts 52°
2026-05-04 12:31 9.84567 114.83221 34904 ft 452 kts 52°
2026-05-04 12:31 9.88440 114.88209 34908 ft 453 kts 52°
2026-05-04 12:32 9.94307 114.95761 34905 ft 453 kts 52°
2026-05-04 12:33 9.98186 115.00760 34899 ft 454 kts 52°
2026-05-04 12:33 10.02113 115.05825 34900 ft 454 kts 52°
2026-05-04 12:34 10.06008 115.10866 34905 ft 454 kts 52°
2026-05-04 12:34 10.09911 115.15911 34906 ft 454 kts 52°
2026-05-04 12:35 10.13816 115.20948 34909 ft 454 kts 52°
2026-05-04 12:35 10.17721 115.25986 34910 ft 454 kts 52°
2026-05-04 12:36 10.21621 115.31036 34906 ft 454 kts 52°
2026-05-04 12:36 10.25514 115.36088 34907 ft 455 kts 52°
2026-05-04 12:37 10.29425 115.41143 34913 ft 455 kts 52°
2026-05-04 12:37 10.33330 115.46194 34911 ft 455 kts 52°
2026-05-04 12:38 10.37233 115.51250 34907 ft 455 kts 52°
2026-05-04 12:38 10.41137 115.56312 34914 ft 455 kts 52°
2026-05-04 12:39 10.45049 115.61387 34909 ft 456 kts 52°
2026-05-04 12:39 10.48959 115.66452 34922 ft 456 kts 52°
2026-05-04 12:40 10.52866 115.71523 34922 ft 456 kts 52°
2026-05-04 12:40 10.56777 115.76606 34920 ft 456 kts 52°
2026-05-04 12:41 10.60682 115.81687 34910 ft 456 kts 53°
2026-05-04 12:41 10.64595 115.86764 34903 ft 457 kts 52°
2026-05-04 12:42 10.68511 115.91847 34910 ft 457 kts 53°
2026-05-04 12:42 10.72424 115.96942 34907 ft 458 kts 53°
2026-05-04 12:43 10.76340 116.02045 34911 ft 458 kts 53°
2026-05-04 12:43 10.80266 116.07165 34907 ft 459 kts 53°
2026-05-04 12:44 10.84192 116.12278 34913 ft 459 kts 53°
2026-05-04 12:44 10.88114 116.17400 34911 ft 459 kts 53°
2026-05-04 12:45 10.92039 116.22524 34915 ft 459 kts 53°
2026-05-04 12:45 10.95980 116.27650 34916 ft 459 kts 53°
2026-05-04 12:46 10.99907 116.32779 34919 ft 459 kts 54°
2026-05-04 12:46 11.03747 116.37966 34924 ft 459 kts 53°
2026-05-04 12:47 11.07721 116.43053 34924 ft 459 kts 52°
2026-05-04 12:47 11.11692 116.48157 34924 ft 459 kts 52°
2026-05-04 12:48 11.15617 116.53282 34923 ft 459 kts 53°
2026-05-04 12:48 11.19530 116.58417 34923 ft 459 kts 53°
2026-05-04 12:49 11.23440 116.63553 34927 ft 459 kts 53°
2026-05-04 12:49 11.27358 116.68684 34925 ft 459 kts 53°
2026-05-04 12:50 11.31287 116.73821 34922 ft 459 kts 53°
2026-05-04 12:50 11.35203 116.78957 34921 ft 459 kts 53°
2026-05-04 12:51 11.39114 116.84095 34919 ft 459 kts 53°
2026-05-04 12:51 11.43024 116.89235 34918 ft 459 kts 53°
2026-05-04 12:52 11.46949 116.94383 34923 ft 459 kts 53°
2026-05-04 12:52 11.50876 116.99523 34925 ft 460 kts 53°
2026-05-04 12:53 11.54797 117.04675 34923 ft 460 kts 53°
2026-05-04 12:53 11.58728 117.09843 34926 ft 461 kts 53°
2026-05-04 12:54 11.62654 117.15008 34928 ft 461 kts 53°
2026-05-04 12:54 11.66580 117.20177 34926 ft 461 kts 53°
2026-05-04 12:55 11.70507 117.25348 34930 ft 461 kts 53°
2026-05-04 12:55 11.74431 117.30523 34928 ft 461 kts 53°
2026-05-04 12:56 11.78356 117.35713 34931 ft 461 kts 53°
2026-05-04 12:56 11.82283 117.40891 34925 ft 461 kts 53°
2026-05-04 12:57 11.86215 117.46067 34920 ft 462 kts 53°
2026-05-04 12:57 11.90153 117.51258 34918 ft 462 kts 53°
2026-05-04 12:58 11.94076 117.56450 34922 ft 462 kts 53°
2026-05-04 12:58 11.98004 117.61640 34926 ft 462 kts 53°
2026-05-04 12:59 12.01301 117.65991 34926 ft 462 kts 53°
2026-05-04 12:59 12.05227 117.71185 34927 ft 462 kts 53°
2026-05-04 13:00 12.09151 117.76397 34927 ft 462 kts 53°
2026-05-04 13:00 12.13077 117.81598 34928 ft 462 kts 53°
2026-05-04 13:01 12.17004 117.86798 34932 ft 462 kts 53°
2026-05-04 13:01 12.20934 117.92000 34934 ft 462 kts 53°
2026-05-04 13:02 12.24856 117.97201 34929 ft 462 kts 53°
2026-05-04 13:02 12.28773 118.02403 34929 ft 462 kts 53°
2026-05-04 13:03 12.32693 118.07616 34936 ft 462 kts 53°
2026-05-04 13:03 12.36609 118.12819 34932 ft 462 kts 53°
2026-05-04 13:04 12.40528 118.18021 34931 ft 462 kts 53°
2026-05-04 13:04 12.44446 118.23226 34928 ft 462 kts 53°
2026-05-04 13:05 12.48363 118.28440 34928 ft 462 kts 53°
2026-05-04 13:05 12.52279 118.33666 34927 ft 462 kts 53°
2026-05-04 13:06 12.56190 118.38884 34926 ft 462 kts 53°
2026-05-04 13:06 12.60104 118.44099 34929 ft 462 kts 53°
2026-05-04 13:07 12.64016 118.49321 34928 ft 462 kts 53°
2026-05-04 13:07 12.67935 118.54538 34929 ft 462 kts 53°
2026-05-04 13:08 12.71844 118.59761 34926 ft 462 kts 53°
2026-05-04 13:08 12.75754 118.64987 34926 ft 462 kts 53°
2026-05-04 13:09 12.79674 118.70226 34924 ft 463 kts 53°
2026-05-04 13:09 12.83591 118.75462 34923 ft 463 kts 53°
2026-05-04 13:10 12.87512 118.80709 34925 ft 464 kts 53°
2026-05-04 13:10 12.91435 118.85954 34926 ft 464 kts 53°
2026-05-04 13:11 12.95355 118.91199 34927 ft 464 kts 53°
2026-05-04 13:11 12.99263 118.96452 34928 ft 463 kts 53°
2026-05-04 13:12 13.03182 119.01709 34929 ft 463 kts 52°
2026-05-04 13:12 13.07127 119.06931 34927 ft 463 kts 52°
2026-05-04 13:13 13.11092 119.12136 34933 ft 463 kts 52°
2026-05-04 13:13 13.15055 119.17340 34938 ft 463 kts 52°
2026-05-04 13:14 13.19009 119.22557 34942 ft 462 kts 52°
2026-05-04 13:14 13.22943 119.27767 34946 ft 462 kts 52°
2026-05-04 13:15 13.26875 119.32967 34947 ft 461 kts 51°
2026-05-04 13:15 13.30807 119.38157 34949 ft 460 kts 51°
2026-05-04 13:16 13.34738 119.43352 34950 ft 460 kts 51°
2026-05-04 13:16 13.38650 119.48533 34950 ft 459 kts 51°
2026-05-04 13:17 13.42556 119.53714 34945 ft 458 kts 51°
2026-05-04 13:17 13.46465 119.58895 34947 ft 458 kts 51°
2026-05-04 13:18 13.50362 119.64063 34949 ft 457 kts 51°
2026-05-04 13:18 13.54258 119.69226 34947 ft 457 kts 51°
2026-05-04 13:18 13.56205 119.71818 34829 ft 458 kts 51°
2026-05-04 13:19 13.58151 119.74412 34599 ft 457 kts 51°
2026-05-04 13:19 13.60087 119.76994 34373 ft 457 kts 51°
2026-05-04 13:19 13.62032 119.79580 34150 ft 456 kts 51°
2026-05-04 13:19 13.63988 119.82179 33787 ft 452 kts 51°
2026-05-04 13:20 13.65880 119.84694 33270 ft 448 kts 51°
2026-05-04 13:20 13.67774 119.87214 32627 ft 442 kts 51°
2026-05-04 13:20 13.69661 119.89728 31891 ft 437 kts 51°
2026-05-04 13:20 13.71491 119.92167 31416 ft 434 kts 52°
2026-05-04 13:21 13.73329 119.94616 30965 ft 430 kts 52°
2026-05-04 13:21 13.75146 119.97035 30486 ft 427 kts 52°
2026-05-04 13:21 13.76986 119.99478 29949 ft 426 kts 53°
2026-05-04 13:21 13.78795 120.01879 29396 ft 423 kts 53°
2026-05-04 13:22 13.80584 120.04261 28886 ft 419 kts 53°
2026-05-04 13:22 13.82359 120.06627 28374 ft 415 kts 53°
2026-05-04 13:22 13.84167 120.08882 27942 ft 411 kts 46°
2026-05-04 13:22 13.86333 120.10785 27725 ft 401 kts 35°
2026-05-04 13:23 13.88737 120.12220 27219 ft 400 kts 25°
2026-05-04 13:23 13.91271 120.13356 26833 ft 395 kts 24°
2026-05-04 13:23 13.93777 120.14475 26214 ft 390 kts 24°
2026-05-04 13:23 13.96249 120.15585 25578 ft 383 kts 25°
2026-05-04 13:24 13.98666 120.16676 24951 ft 377 kts 25°
2026-05-04 13:24 14.01058 120.17757 24300 ft 373 kts 25°
2026-05-04 13:24 14.03434 120.18830 23811 ft 372 kts 25°
2026-05-04 13:25 14.08134 120.20952 22997 ft 366 kts 25°
2026-05-04 13:25 14.10454 120.21995 22394 ft 362 kts 25°
2026-05-04 13:25 14.12743 120.23026 21765 ft 358 kts 25°
2026-05-04 13:25 14.15016 120.24051 21158 ft 354 kts 25°
2026-05-04 13:26 14.17265 120.25065 20571 ft 351 kts 25°
2026-05-04 13:26 14.19484 120.26069 19999 ft 347 kts 25°
2026-05-04 13:26 14.21685 120.27066 19441 ft 344 kts 25°
2026-05-04 13:26 14.23866 120.28054 18913 ft 341 kts 25°
2026-05-04 13:27 14.26027 120.29033 18394 ft 338 kts 25°
2026-05-04 13:27 14.28172 120.30001 17825 ft 335 kts 25°
2026-05-04 13:27 14.30299 120.30962 17256 ft 332 kts 25°
2026-05-04 13:27 14.32394 120.31908 16700 ft 329 kts 25°
2026-05-04 13:28 14.34478 120.32849 16159 ft 326 kts 25°
2026-05-04 13:28 14.36541 120.33784 15644 ft 323 kts 25°
2026-05-04 13:28 14.38594 120.34714 15146 ft 321 kts 25°
2026-05-04 13:28 14.40635 120.35641 14652 ft 319 kts 25°
2026-05-04 13:29 14.42612 120.36635 14418 ft 316 kts 34°
2026-05-04 13:29 14.44312 120.38054 14187 ft 313 kts 48°
2026-05-04 13:29 14.45683 120.39807 13967 ft 320 kts 51°
2026-05-04 13:29 14.47391 120.41295 13665 ft 324 kts 29°
2026-05-04 13:30 14.49543 120.41971 13257 ft 326 kts
2026-05-04 13:30 14.51780 120.41706 12898 ft 327 kts 342°
2026-05-04 13:30 14.53744 120.40538 12551 ft 328 kts 319°
2026-05-04 13:30 14.55107 120.38659 12177 ft 329 kts 295°
2026-05-04 13:31 14.55641 120.36377 11800 ft 329 kts 271°
2026-05-04 13:31 14.55263 120.34072 11420 ft 327 kts 247°
2026-05-04 13:31 14.54038 120.32121 11031 ft 324 kts 222°
2026-05-04 13:31 14.52184 120.30857 10643 ft 318 kts 198°
2026-05-04 13:32 14.50048 120.30464 10360 ft 309 kts 179°
2026-05-04 13:32 14.47925 120.30427 10144 ft 302 kts 177°
2026-05-04 13:32 14.45831 120.30416 9832 ft 300 kts 177°
2026-05-04 13:32 14.43745 120.30402 9465 ft 299 kts 177°
2026-05-04 13:33 14.41673 120.30387 9104 ft 297 kts 177°
2026-05-04 13:33 14.39608 120.30370 8734 ft 296 kts 177°
2026-05-04 13:33 14.37559 120.30352 8367 ft 294 kts 177°
2026-05-04 13:33 14.35512 120.30333 8000 ft 293 kts 177°
2026-05-04 13:34 14.33476 120.30311 7635 ft 292 kts 177°
2026-05-04 13:34 14.31452 120.30287 7263 ft 290 kts 177°
2026-05-04 13:34 14.29446 120.30264 7014 ft 288 kts 177°
2026-05-04 13:34 14.27438 120.30241 6992 ft 289 kts 177°
2026-05-04 13:35 14.25423 120.30220 6996 ft 289 kts 177°
2026-05-04 13:35 14.22079 120.30187 6997 ft 290 kts 177°
2026-05-04 13:35 14.19377 120.30162 6993 ft 290 kts 177°
2026-05-04 13:36 14.17361 120.30143 6996 ft 290 kts 177°
2026-05-04 13:36 14.16002 120.30130 6995 ft 290 kts 177°
2026-05-04 13:36 14.14010 120.30113 7000 ft 290 kts 177°
2026-05-04 13:36 14.11989 120.30260 7002 ft 285 kts 161°
2026-05-04 13:37 14.10299 120.31178 6995 ft 277 kts 134°
2026-05-04 13:37 14.09124 120.32740 7002 ft 273 kts 118°
2026-05-04 13:37 14.08163 120.34399 7004 ft 273 kts 117°
2026-05-04 13:37 14.07200 120.36111 7000 ft 273 kts 117°
2026-05-04 13:38 14.06262 120.37789 6999 ft 274 kts 117°
2026-05-04 13:38 14.05302 120.39510 7000 ft 274 kts 117°
2026-05-04 13:38 14.04354 120.41213 6998 ft 274 kts 117°
2026-05-04 13:38 14.03411 120.42917 6820 ft 272 kts 116°
2026-05-04 13:39 14.02835 120.44711 6437 ft 266 kts 92°
2026-05-04 13:39 14.03151 120.46574 6032 ft 263 kts 64°
2026-05-04 13:39 14.04217 120.48099 5585 ft 264 kts 49°
2026-05-04 13:39 14.05472 120.49488 5143 ft 265 kts 47°
2026-05-04 13:40 14.06725 120.50834 5003 ft 265 kts 47°
2026-05-04 13:40 14.08055 120.52198 5003 ft 264 kts 44°
2026-05-04 13:40 14.09362 120.53436 5000 ft 244 kts 43°
2026-05-04 13:40 14.10558 120.54536 4992 ft 219 kts 43°
2026-05-04 13:41 14.11676 120.55561 4996 ft 213 kts 43°
2026-05-04 13:41 14.12778 120.56575 5002 ft 213 kts 43°
2026-05-04 13:41 14.13883 120.57593 5004 ft 212 kts 42°
2026-05-04 13:42 14.16407 120.59209 5004 ft 215 kts 32°
2026-05-04 13:42 14.17700 120.59989 5003 ft 215 kts 32°
2026-05-04 13:42 14.18989 120.60765 5000 ft 215 kts 32°
2026-05-04 13:42 14.20282 120.61542 5000 ft 215 kts 32°
2026-05-04 13:43 14.21577 120.62319 5006 ft 215 kts 32°
2026-05-04 13:43 14.22871 120.63096 5008 ft 216 kts 32°
2026-05-04 13:43 14.24166 120.63875 4999 ft 215 kts 32°
2026-05-04 13:43 14.25463 120.64655 4998 ft 215 kts 32°
2026-05-04 13:44 14.26759 120.65434 4997 ft 216 kts 33°
2026-05-04 13:44 14.28023 120.66259 4988 ft 214 kts 32°
2026-05-04 13:44 14.29307 120.67035 4993 ft 214 kts 32°
2026-05-04 13:44 14.30600 120.67799 4997 ft 214 kts 31°
2026-05-04 13:45 14.31889 120.68570 4923 ft 214 kts 36°
2026-05-04 13:45 14.32890 120.69662 4801 ft 210 kts 60°
2026-05-04 13:45 14.33622 120.70973 4678 ft 211 kts 61°
2026-05-04 13:45 14.34347 120.72283 4612 ft 210 kts 61°
2026-05-04 13:46 14.35073 120.73587 4563 ft 210 kts 61°
2026-05-04 13:46 14.35803 120.74896 4492 ft 210 kts 61°
2026-05-04 13:46 14.36531 120.76202 4414 ft 210 kts 62°
2026-05-04 13:46 14.37254 120.77498 4325 ft 208 kts 61°
2026-05-04 13:47 14.37978 120.78798 4236 ft 209 kts 62°
2026-05-04 13:47 14.38702 120.80094 4125 ft 210 kts 61°
2026-05-04 13:47 14.39436 120.81398 3845 ft 210 kts 62°
2026-05-04 13:47 14.40171 120.82705 3585 ft 210 kts 61°
2026-05-04 13:48 14.40901 120.83999 3360 ft 208 kts 62°
2026-05-04 13:48 14.41607 120.85298 3095 ft 208 kts 63°
2026-05-04 13:48 14.42325 120.86600 2812 ft 210 kts 62°
2026-05-04 13:48 14.43039 120.87854 2664 ft 196 kts 62°
2026-05-04 13:49 14.43696 120.89066 2379 ft 190 kts 62°
2026-05-04 13:49 14.44346 120.90246 2081 ft 184 kts 61°
2026-05-04 13:49 14.44973 120.91363 1818 ft 179 kts 62°
2026-05-04 13:49 14.45580 120.92440 1590 ft 164 kts 61°
2026-05-04 13:50 14.46110 120.93404 1403 ft 151 kts 63°
2026-05-04 13:50 14.46631 120.94333 1198 ft 146 kts 63°
2026-05-04 13:50 14.47125 120.95231 1022 ft 144 kts 62°
2026-05-04 13:50 14.47632 120.96144 836 ft 147 kts 63°
2026-05-04 13:51 14.48136 120.97049 730 ft 143 kts 62°
2026-05-04 13:51 14.48642 120.97958 505 ft 146 kts 61°
2026-05-04 13:51 14.49151 120.98864 360 ft 145 kts 65°
2026-05-04 13:51 14.49654 120.99777 196 ft 147 kts 63°
2026-05-04 13:52 14.50527 121.01353 57 ft 85 kts 59°
2026-05-04 13:52 14.50727 121.01697 50 ft 37 kts 51°
2026-05-04 13:52 14.50859 121.01779 39 ft 12 kts 37°
2026-05-04 13:53 14.50928 121.01752 31 ft 1 kts 317°